Regional Weather Roundup
Issued by NWS

Home | Current Version | Previous Version | Graphics & Text | Print | Product List | Glossary On
Versions: 1 2 3 4 5 6 7 8 9 10 11 12 13 14 15 16 17 18 19 20 21 22 23 24 25 26 27 28 29 30 31 32 33 34 35 36 37 38 39 40 41 42 43 44 45 46 47 48 49 50
000
ASUS43 KOAX 021310
RWRNE

WEATHER ROUNDUP FOR NEBRASKA
NATIONAL WEATHER SERVICE OMAHA NE
800 AM CDT TUE SEP 02 2014

NOTES: SATELLITE DATA IS BEING USED TO AUGMENT CLOUD COVER ABOVE
       12000 FEET.
       "FAIR" INDICATES FEW OR NO CLOUDS BELOW 12,000 FEET WITH NO
       SIGNIFICANT WEATHER AND/OR OBSTRUCTIONS TO VISIBILITY.

  * THESE STATIONS DO NOT REPORT WEATHER SUCH AS RAIN...SNOW OR FOG.

NEZ001>004-019>022-054>056-021400-
NEBRASKA PANHANDLE

CITY           SKY/WX    TMP DP  RH WIND       PRES   REMARKS
SCOTTSBLUFF    CLEAR     47  46  97 E6        30.07S
ALLIANCE       CLEAR     41  40  96 SW3       30.06S
CHADRON        CLEAR     46  43  89 CALM      30.03R
KIMBALL        CLEAR     45  43  92 W7        30.09S
SIDNEY         CLEAR     46  43  89 W6        30.10R
$$

NEZ057>060-069>072-079>082-021400-
SOUTHWEST NEBRASKA

CITY           SKY/WX    TMP DP  RH WIND       PRES   REMARKS
NORTH PLATTE   CLEAR     48  47  96 N5        30.05R FOG
IMPERIAL       CLEAR     51  48  89 W3        30.07R
LEXINGTON      CLEAR     51  50  97 SW3       30.05R
MCCOOK         CLEAR     53  52  96 SW5       30.07R
OGALLALA       CLEAR     44  43  98 SW5       30.07R
$$

NEZ005>010-023>029-035>040-094-021400-
NORTH CENTRAL NEBRASKA

CITY           SKY/WX    TMP DP  RH WIND       PRES   REMARKS
VALENTINE      CLEAR     49  47  93 W8        30.01R
AINSWORTH      CLEAR     50  49  93 W6        30.01R
BROKEN BOW     CLEAR     53  50  89 CALM      30.02R
O`NEILL        CLEAR     55  52  91 W7        29.98S
ORD            CLEAR     52  50  93 CALM      30.00R
THEDFORD       CLEAR     50  49  97 SW3       30.04R
$$

NEZ041-046>049-061>064-073>077-083>087-021400-
SOUTH CENTRAL NEBRASKA

CITY           SKY/WX    TMP DP  RH WIND       PRES   REMARKS
GRAND ISLAND   SUNNY     56  52  86 W5        30.02R
AURORA         SUNNY     54  54 100 CALM      30.02R
HASTINGS       SUNNY     54  51  90 CALM      30.03R
HEBRON         SUNNY     56  54  90 CALM      30.03R
HOLDREGE       CLEAR     54  53  95 CALM      30.05R
KEARNEY *      CLEAR     54  52  94 S6        30.05R
YORK           SUNNY     54 N/A N/A W5        30.02R
$$

NEZ011>018-030>034-042>045-021400-
NORTHEAST NEBRASKA

CITY           SKY/WX    TMP DP  RH WIND       PRES   REMARKS
NORFOLK        SUNNY     57  54  89 CALM      29.98R
ALBION         SUNNY     53  51  94 CALM      29.99R
BLAIR          FOG       57  55  94 CALM      29.99R VSB<1/4
FREMONT        SUNNY     59  57  94 CALM      30.00R
TEKAMAH        MOSUNNY   57  56  96 S8        29.99R
WAYNE          SUNNY     55  54  96 CALM      29.98R
$$

NEZ050>053-065>068-078-088>093-021400-
SOUTHEAST NEBRASKA

CITY           SKY/WX    TMP DP  RH WIND       PRES   REMARKS
LINCOLN        SUNNY     60  55  83 N6        30.01R
OMAHA EPPLEY   MOSUNNY   60  57  89 SW6       30.00R
BEATRICE       SUNNY     57  56  97 NW3       30.02R
FALLS CITY     MOSUNNY   61  60  97 NW3       29.98R
NEBRASKA CITY  SUNNY     60  60 100 W6        30.00R
PLATTSMOUTH    SUNNY     58  56  93 NW3       30.00R
$$

NEZ044-045-051>053-067-021400-
OMAHA AREA

CITY           SKY/WX    TMP DP  RH WIND       PRES   REMARKS
OMAHA EPPLEY   MOSUNNY   60  57  89 SW6       30.00R
BLAIR          FOG       57  55  94 CALM      29.99R VSB<1/4
FREMONT        SUNNY     59  57  94 CALM      30.00R
MILLARD        SUNNY     60  57  89 W3        30.00R
OFFUTT AFB     SUNNY     60  60 100 W5        29.99R
PLATTSMOUTH    SUNNY     58  56  93 NW3       30.00R
WAHOO          FAIR      57  55  92 SW3       30.00R
$$



USA.gov is the U.S. government's official web portal to all federal, state and local government web resources and services.